Regional Weather Roundup
Issued by NWS

Home | Current Version | Previous Version | Text Only | Print | Product List | Glossary Off
Versions: 1 2 3 4 5 6 7 8 9 10 11 12 13 14 15 16 17 18 19 20 21 22 23 24 25 26 27 28 29 30 31 32 33 34 35 36 37 38 39 40 41 42 43 44 45 46 47 48 49 50

000
ASUS45 KBOI 270210
RWRID
WEATHER ROUNDUP FOR IDAHO
NATIONAL WEATHER SERVICE BOISE ID
800 PM MDT TUE AUG 26 2014

NOTE: "FAIR" INDICATES FEW OR NO CLOUDS BELOW 12000 FEET
WITH NO SIGNIFICANT WEATHER AND/OR OBSTRUCTIONS TO VISIBILITY

IDZ012-014-270300-
SOUTHWEST IDAHO


CITY           SKY/WX    TMP DP  RH WIND       PRES   REMARKS
BOISE          CLEAR     80  45  28 W6        30.04R
CALDWELL       CLEAR     79  45  29 W6        30.04S
MOUNTAIN HOME  CLEAR     80  46  30 SW2       30.04S
$$

IDZ016-017-270300-
SOUTHCENTRAL IDAHO


CITY           SKY/WX    TMP DP  RH WIND       PRES   REMARKS
BURLEY         CLEAR     72  49  44 NW5       30.08S
JEROME         CLEAR     70  50  49 W5        30.10S
TWIN FALLS     PTCLDY    72  48  42 NW3       30.10S
$$

IDZ019>023-270300-
SOUTHEAST IDAHO


CITY           SKY/WX    TMP DP  RH WIND       PRES   REMARKS
IDAHO FALLS    CLEAR     73  44  35 S6        30.14S
POCATELLO      PTCLDY    75  45  34 CALM      30.13R
REXBURG        CLEAR     71  44  37 CALM      30.15S
$$

IDZ006-010-011-018-031-032-270300-
CENTRAL IDAHO MOUNTAINS


CITY           SKY/WX    TMP DP  RH WIND       PRES   REMARKS
MCCALL         CLEAR     72  31  22 VRB6      30.13S
HAILEY         PTCLDY    64  46  52 SE7       30.18R
STANLEY          N/A     62  40  44 SW3       30.22R
SALMON         CLEAR     70  50  49 SW3       30.07R
CHALLIS        CLEAR     67  44  43 SW3       30.13R
$$

IDZ002-004-006-007-026-270300-
NORTHERN IDAHO


CITY           SKY/WX    TMP DP  RH WIND       PRES   REMARKS
LEWISTON       CLEAR     86  36  16 CALM      29.97S
LOWELL           N/A     67  53  61 N3        29.99R
COEUR D`ALENE  CLEAR     81  46  30 CALM      30.00F
MULLAN PASS    CLEAR     61  41  47 CALM      30.22S
$$


USA.gov is the U.S. government's official web portal to all federal, state and local government web resources and services.